Time,TemperatureF,DewpointF,PressureIn,WindDirection,WindDirectionDegrees,WindSpeedMPH,WindSpeedGustMPH,Humidity,HourlyPrecipIn,Conditions,Clouds,dailyrainin,SoftwareType,DateUTC
2013-07-29 00:10:00,64.7,62.0,30.06,North,5,0.0,0.0,91,0.00,,,0.00,weatherlink.com 1.10,2013-07-29 04:10:00,
2013-07-29 00:25:00,64.2,62.0,30.05,North,5,0.0,0.0,92,0.00,,,0.00,weatherlink.com 1.10,2013-07-29 04:25:00,
2013-07-29 00:40:00,63.8,62.0,30.06,North,5,0.0,0.0,92,0.00,,,0.00,weatherlink.com 1.10,2013-07-29 04:40:00,
2013-07-29 00:56:00,63.4,61.0,30.06,North,5,0.0,0.0,91,0.00,,,0.00,weatherlink.com 1.10,2013-07-29 04:56:00,
2013-07-29 01:10:00,63.1,61.0,30.07,North,5,0.0,0.0,92,0.00,,,0.00,weatherlink.com 1.10,2013-07-29 05:10:00,
2013-07-29 01:25:00,62.9,60.0,30.06,North,5,0.0,0.0,91,0.00,,,0.00,weatherlink.com 1.10,2013-07-29 05:25:00,
2013-07-29 01:40:00,62.6,60.0,30.06,North,5,0.0,0.0,90,0.00,,,0.00,weatherlink.com 1.10,2013-07-29 05:40:00,
2013-07-29 01:55:00,62.3,59.0,30.06,North,5,0.0,0.0,89,0.00,,,0.00,weatherlink.com 1.10,2013-07-29 05:55:00,
2013-07-29 02:10:00,62.0,59.0,30.06,North,5,0.0,0.0,89,0.00,,,0.00,weatherlink.com 1.10,2013-07-29 06:10:00,
2013-07-29 02:25:00,61.7,59.0,30.05,North,5,0.0,0.0,91,0.00,,,0.00,weatherlink.com 1.10,2013-07-29 06:25:00,
2013-07-29 02:41:00,61.6,59.0,30.05,North,5,0.0,0.0,91,0.00,,,0.00,weatherlink.com 1.10,2013-07-29 06:41:00,
2013-07-29 02:55:00,61.4,58.0,30.05,North,5,0.0,0.0,89,0.00,,,0.00,weatherlink.com 1.10,2013-07-29 06:55:00,
2013-07-29 03:10:00,61.3,57.0,30.05,North,5,0.0,0.0,87,0.00,,,0.00,weatherlink.com 1.10,2013-07-29 07:10:00,
2013-07-29 03:25:00,61.1,58.0,30.05,North,5,0.0,0.0,89,0.00,,,0.00,weatherlink.com 1.10,2013-07-29 07:25:00,
2013-07-29 03:40:00,60.7,58.0,30.05,North,5,0.0,0.0,91,0.00,,,0.00,weatherlink.com 1.10,2013-07-29 07:40:00,
2013-07-29 03:55:00,60.4,58.0,30.06,North,5,0.0,0.0,92,0.00,,,0.00,weatherlink.com 1.10,2013-07-29 07:55:00,
2013-07-29 04:11:00,60.1,58.0,30.06,North,5,0.0,0.0,94,0.00,,,0.00,weatherlink.com 1.10,2013-07-29 08:11:00,
2013-07-29 04:25:00,60.0,58.0,30.06,North,5,0.0,0.0,94,0.00,,,0.00,weatherlink.com 1.10,2013-07-29 08:25:00,
2013-07-29 04:41:00,60.1,59.0,30.07,North,5,0.0,0.0,96,0.00,,,0.00,weatherlink.com 1.10,2013-07-29 08:41:00,
2013-07-29 04:55:00,60.2,59.0,30.07,North,5,0.0,0.0,95,0.00,,,0.00,weatherlink.com 1.10,2013-07-29 08:55:00,
2013-07-29 05:10:00,60.2,59.0,30.07,North,5,0.0,0.0,95,0.00,,,0.00,weatherlink.com 1.10,2013-07-29 09:10:00,
2013-07-29 05:25:00,59.9,58.0,30.07,North,5,0.0,0.0,94,0.00,,,0.00,weatherlink.com 1.10,2013-07-29 09:25:00,
2013-07-29 05:41:00,59.5,58.0,30.08,North,5,0.0,0.0,95,0.00,,,0.00,weatherlink.com 1.10,2013-07-29 09:41:00,
2013-07-29 05:55:00,59.3,58.0,30.08,North,5,0.0,0.0,96,0.00,,,0.00,weatherlink.com 1.10,2013-07-29 09:55:00,
2013-07-29 06:25:00,59.4,58.0,30.08,North,5,0.0,0.0,96,0.00,,,0.00,weatherlink.com 1.10,2013-07-29 10:25:00,
2013-07-29 06:40:00,59.2,58.0,30.08,North,5,0.0,0.0,96,0.00,,,0.00,weatherlink.com 1.10,2013-07-29 10:40:00,
2013-07-29 06:55:00,59.0,58.0,30.09,North,5,0.0,0.0,97,0.00,,,0.00,weatherlink.com 1.10,2013-07-29 10:55:00,
2013-07-29 07:10:00,59.0,58.0,30.09,North,5,0.0,0.0,96,0.00,,,0.00,weatherlink.com 1.10,2013-07-29 11:10:00,
2013-07-29 07:26:00,58.6,57.0,30.09,North,5,0.0,0.0,94,0.00,,,0.00,weatherlink.com 1.10,2013-07-29 11:26:00,
2013-07-29 07:40:00,58.8,57.0,30.11,North,5,0.0,0.0,94,0.00,,,0.00,weatherlink.com 1.10,2013-07-29 11:40:00,
2013-07-29 08:10:00,60.0,59.0,30.12,North,5,0.0,0.0,96,0.00,,,0.00,weatherlink.com 1.10,2013-07-29 12:10:00,
2013-07-29 08:26:00,60.5,59.0,30.12,North,5,0.0,0.0,95,0.00,,,0.00,weatherlink.com 1.10,2013-07-29 12:26:00,
2013-07-29 08:40:00,61.4,60.0,30.12,North,5,0.0,0.0,95,0.00,,,0.00,weatherlink.com 1.10,2013-07-29 12:40:00,
2013-07-29 08:55:00,61.7,60.0,30.12,North,5,0.0,0.0,93,0.00,,,0.00,weatherlink.com 1.10,2013-07-29 12:55:00,
2013-07-29 09:25:00,62.9,60.0,30.14,North,360,0.0,0.0,90,0.00,,,0.00,weatherlink.com 1.10,2013-07-29 13:25:00,
2013-07-29 09:41:00,63.8,60.0,30.14,North,360,0.0,0.0,86,0.00,,,0.00,weatherlink.com 1.10,2013-07-29 13:41:00,
2013-07-29 09:56:00,65.6,60.0,30.15,North,360,0.0,1.0,82,0.00,,,0.00,weatherlink.com 1.10,2013-07-29 13:56:00,
2013-07-29 10:26:00,68.2,60.0,30.15,NNW,337,0.0,0.0,76,0.00,,,0.00,weatherlink.com 1.10,2013-07-29 14:26:00,
2013-07-29 10:41:00,68.7,60.0,30.16,NNW,336,0.0,1.0,73,0.00,,,0.00,weatherlink.com 1.10,2013-07-29 14:41:00,
2013-07-29 10:56:00,69.2,61.0,30.16,NE,38,0.0,1.0,74,0.00,,,0.00,weatherlink.com 1.10,2013-07-29 14:56:00,
2013-07-29 11:11:00,70.0,62.0,30.16,NE,38,0.0,0.0,75,0.00,,,0.00,weatherlink.com 1.10,2013-07-29 15:11:00,
2013-07-29 11:57:00,71.6,62.0,30.16,WNW,290,0.0,1.0,71,0.00,,,0.00,weatherlink.com 1.10,2013-07-29 15:57:00,
2013-07-29 12:12:00,71.9,60.0,30.16,NE,47,0.0,1.0,66,0.00,,,0.00,weatherlink.com 1.10,2013-07-29 16:12:00,
2013-07-29 12:56:00,73.8,64.0,30.16,ENE,78,0.0,1.0,71,0.00,,,0.00,weatherlink.com 1.10,2013-07-29 16:56:00,
2013-07-29 13:11:00,72.7,61.0,30.16,ENE,78,0.0,0.0,66,0.00,,,0.00,weatherlink.com 1.10,2013-07-29 17:11:00,
2013-07-29 13:56:00,71.6,61.0,30.15,East,79,0.0,0.0,70,0.00,,,0.00,weatherlink.com 1.10,2013-07-29 17:56:00,
2013-07-29 14:11:00,71.8,63.0,30.15,ENE,78,0.0,0.0,73,0.00,,,0.00,weatherlink.com 1.10,2013-07-29 18:11:00,
2013-07-29 14:26:00,73.0,61.0,30.15,NNE,14,0.0,2.0,67,0.00,,,0.00,weatherlink.com 1.10,2013-07-29 18:26:00,
2013-07-29 14:56:00,75.1,61.0,30.15,ESE,119,0.0,0.0,62,0.00,,,0.00,weatherlink.com 1.10,2013-07-29 18:56:00,
2013-07-29 15:58:00,76.4,62.0,30.15,NE,45,0.0,1.0,61,0.00,,,0.00,weatherlink.com 1.10,2013-07-29 19:58:00,
2013-07-29 16:12:00,75.7,63.0,30.15,NE,45,0.0,1.0,65,0.00,,,0.00,weatherlink.com 1.10,2013-07-29 20:12:00,
2013-07-29 16:28:00,75.3,64.0,30.14,NE,45,0.0,0.0,69,0.00,,,0.00,weatherlink.com 1.10,2013-07-29 20:28:00,
2013-07-29 16:42:00,77.0,63.0,30.14,North,355,0.0,1.0,63,0.00,,,0.00,weatherlink.com 1.10,2013-07-29 20:42:00,
2013-07-29 16:57:00,77.3,63.0,30.14,North,355,0.0,0.0,62,0.00,,,0.00,weatherlink.com 1.10,2013-07-29 20:57:00,
2013-07-29 17:27:00,78.8,64.0,30.14,WNW,300,0.0,0.0,61,0.00,,,0.00,weatherlink.com 1.10,2013-07-29 21:27:00,
2013-07-29 17:42:00,78.8,64.0,30.14,NW,306,0.0,1.0,61,0.00,,,0.00,weatherlink.com 1.10,2013-07-29 21:42:00,
2013-07-29 17:57:00,77.3,64.0,30.14,NW,306,0.0,1.0,64,0.00,,,0.00,weatherlink.com 1.10,2013-07-29 21:57:00,
2013-07-29 18:12:00,76.3,64.0,30.14,NW,306,0.0,0.0,66,0.00,,,0.00,weatherlink.com 1.10,2013-07-29 22:12:00,
2013-07-29 18:27:00,75.7,64.0,30.14,NNW,348,0.0,0.0,68,0.00,,,0.00,weatherlink.com 1.10,2013-07-29 22:27:00,
2013-07-29 18:43:00,74.9,65.0,30.13,NNW,348,0.0,0.0,70,0.00,,,0.00,weatherlink.com 1.10,2013-07-29 22:43:00,
2013-07-29 19:13:00,74.0,65.0,30.13,NNW,348,0.0,0.0,74,0.00,,,0.00,weatherlink.com 1.10,2013-07-29 23:13:00,
2013-07-29 19:27:00,73.7,64.0,30.14,North,349,0.0,0.0,72,0.00,,,0.00,weatherlink.com 1.10,2013-07-29 23:27:00,
2013-07-29 20:13:00,71.1,64.0,30.14,North,349,0.0,0.0,78,0.00,,,0.00,weatherlink.com 1.10,2013-07-30 00:13:00,
2013-07-29 20:42:00,69.1,64.0,30.15,North,349,0.0,0.0,84,0.00,,,0.00,weatherlink.com 1.10,2013-07-30 00:42:00,
2013-07-29 20:57:00,68.4,63.0,30.15,North,349,0.0,0.0,82,0.00,,,0.00,weatherlink.com 1.10,2013-07-30 00:57:00,
2013-07-29 21:12:00,67.8,63.0,30.15,North,349,0.0,0.0,83,0.00,,,0.00,weatherlink.com 1.10,2013-07-30 01:12:00,
2013-07-29 21:27:00,67.4,62.0,30.15,North,349,0.0,0.0,83,0.00,,,0.00,weatherlink.com 1.10,2013-07-30 01:27:00,
2013-07-29 21:57:00,67.0,62.0,30.16,North,349,0.0,0.0,84,0.00,,,0.00,weatherlink.com 1.10,2013-07-30 01:57:00,
2013-07-29 22:12:00,66.7,62.0,30.17,North,349,0.0,0.0,84,0.00,,,0.00,weatherlink.com 1.10,2013-07-30 02:12:00,
2013-07-29 22:27:00,66.5,62.0,30.18,North,349,0.0,0.0,85,0.00,,,0.00,weatherlink.com 1.10,2013-07-30 02:27:00,
2013-07-29 22:57:00,65.9,62.0,30.17,North,349,0.0,0.0,87,0.00,,,0.00,weatherlink.com 1.10,2013-07-30 02:57:00,
2013-07-29 23:27:00,65.8,62.0,30.18,North,349,0.0,0.0,88,0.00,,,0.00,weatherlink.com 1.10,2013-07-30 03:27:00,
2013-07-29 23:42:00,65.5,62.0,30.18,North,349,0.0,0.0,87,0.00,,,0.00,weatherlink.com 1.10,2013-07-30 03:42:00,
2013-07-29 23:57:00,65.3,60.0,30.18,North,349,0.0,0.0,84,0.00,,,0.00,weatherlink.com 1.10,2013-07-30 03:57:00,